DW5891 Weather Reports


time (UTC)temp
C
wind
direction
speed
KPH
gust
KPH
rain 1hr
cm
rain 24hr
cm
rain mn
cm
humidity
%
barometer
mb
20260507001511 12 269 11.3 0.0 0.00 0.00 0.00 24 1003.4
20260507000015 12 335 14.5 0.0 0.00 0.00 0.00 24 1003.4
20260506234510 12 296 14.5 0.0 0.00 0.00 0.00 24 1003.5
20260506233008 12 292 16.1 0.0 0.00 0.00 0.00 25 1003.7
20260506231506 12 255 12.9 0.0 0.00 0.00 0.00 25 1003.7
20260506230005 12 266 16.1 0.0 0.00 0.00 0.00 23 1003.8
20260506224504 12 244 11.3 0.0 0.00 0.00 0.00 24 1003.9
20260506223002 12 233 19.3 0.0 0.00 0.00 0.00 25 1004.2
20260506221600 12 216 17.7 0.0 0.00 0.00 0.00 23 1004.3
20260506220057 12 222 12.9 0.0 0.00 0.00 0.00 23 1004.5
20260506214604 12 219 14.5 0.0 0.00 0.00 0.00 24 1004.7
20260506213053 12 292 11.3 0.0 0.00 0.00 0.00 24 1004.9
20260506211550 12 262 16.1 0.0 0.00 0.00 0.00 24 1005.2
20260506210048 12 230 14.5 0.0 0.00 0.00 0.00 24 1005.5
20260506204551 11 260 12.9 0.0 0.00 0.00 0.00 26 1005.7
20260506203046 11 250 14.5 0.0 0.00 0.00 0.00 26 1005.7
20260506201543 11 310 11.3 0.0 0.00 0.00 0.00 27 1006.0
20260506200043 11 253 14.5 0.0 0.00 0.00 0.00 26 1006.4
20260506194542 10 281 11.3 0.0 0.00 0.00 0.00 26 1006.4
20260506193039 10 248 17.7 0.0 0.00 0.00 0.00 26 1006.8
20260506191535 10 250 12.9 0.0 0.00 0.00 0.00 26 1007.1
20260506190032 10 271 17.7 0.0 0.00 0.00 0.00 27 1007.5
20260506184531 10 202 11.3 0.0 0.00 0.00 0.00 28 1007.6
20260506183028 10 281 14.5 0.0 0.00 0.00 0.00 27 1008.1
20260506181525 9 301 12.9 0.0 0.00 0.00 0.00 27 1008.3
20260506180023 9 252 14.5 0.0 0.00 0.00 0.00 26 1008.7
20260506174521 8 287 8.0 0.0 0.00 0.00 0.00 28 1008.8
20260506173018 8 246 12.9 0.0 0.00 0.00 0.00 27 1009.1
20260506171520 8 157 12.9 0.0 0.00 0.00 0.00 28 1009.2
20260506170012 8 231 12.9 0.0 0.00 0.00 0.00 29 1009.5
20260506164509 7 325 12.9 0.0 0.00 0.00 0.00 29 1009.8
20260506163009 7 243 11.3 0.0 0.00 0.00 0.00 29 1009.9
20260506161502 7 295 11.3 0.0 0.00 0.00 0.00 31 1010.2
20260506160002 6 171 11.3 0.0 0.00 0.00 0.00 32 1010.3
20260506154558 6 243 8.0 0.0 0.00 0.00 0.00 34 1010.5
20260506153057 5 203 9.7 0.0 0.00 0.00 0.00 36 1010.5
20260506151552 5 247 8.0 0.0 0.00 0.00 0.00 39 1010.7
20260506150056 4 221 8.0 0.0 0.00 0.00 0.00 41 1010.9
20260506144600 3 211 9.7 0.0 0.00 0.00 0.00 43 1010.9
20260506143041 2 227 6.4 0.0 0.00 0.00 0.00 45 1011.1
20260506141537 2 219 6.4 0.0 0.00 0.00 0.00 47 1011.2
20260506140033 1 206 8.0 0.0 0.00 0.00 0.00 51 1011.3
20260506134529 0 200 9.7 0.0 0.00 0.00 0.00 53 1011.3
20260506133025 0 218 11.3 0.0 0.00 0.00 0.00 56 1011.3
20260506131526 -1 192 11.3 0.0 0.00 0.00 0.00 59 1011.4
20260506130019 -2 201 9.7 0.0 0.00 0.00 0.00 64 1011.3
20260506124513 -3 171 8.0 0.0 0.00 0.00 0.00 69 1011.2
20260506123013 -4 170 8.0 0.0 0.00 0.00 0.00 70 1011.1
20260506121506 -5 173 6.4 0.0 0.00 0.00 0.00 72 1011.1
20260506120013 -6 178 6.4 0.0 0.00 0.00 0.00 73 1011.0
20260506114505 -6 168 6.4 0.0 0.00 0.00 0.00 71 1010.9
20260506113003 -6 156 3.2 0.0 0.00 0.00 0.00 70 1010.8
20260506111504 -6 156 4.8 0.0 0.00 0.00 0.00 70 1010.8
20260506110001 -6 157 3.2 0.0 0.00 0.00 0.00 69 1010.8
20260506104601 -5 161 8.0 0.0 0.00 0.00 0.00 69 1010.7
20260506103059 -5 158 6.4 0.0 0.00 0.00 0.00 66 1010.7
20260506101557 -4 159 8.0 0.0 0.00 0.00 0.00 65 1010.7
20260506100104 -5 159 6.4 0.0 0.00 0.00 0.00 67 1010.6
20260506094612 -4 168 6.4 0.0 0.00 0.00 0.00 65 1010.6
20260506093058 -4 172 6.4 0.0 0.00 0.00 0.00 66 1010.6
20260506091556 -5 171 4.8 0.0 0.00 0.00 0.00 68 1010.6
20260506090055 -5 171 6.4 0.0 0.00 0.00 0.00 68 1010.7
20260506084557 -6 166 4.8 0.0 0.00 0.00 0.00 70 1010.6
20260506083058 -7 171 4.8 0.0 0.00 0.00 0.00 72 1010.5
20260506081549 -6 180 4.8 0.0 0.00 0.00 0.00 68 1010.5
20260506080105 -5 186 3.2 0.0 0.00 0.00 0.00 65 1010.5
20260506073057 -6 187 3.2 0.0 0.00 0.00 0.00 68 1010.6
20260506071545 -6 187 3.2 0.0 0.00 0.00 0.00 69 1010.4
20260506061533 -5 206 3.2 0.0 0.00 0.00 0.00 67 1010.2
20260506044527 -2 249 3.2 0.0 0.00 0.00 0.00 61 1009.9
20260506043014 -1 270 3.2 0.0 0.00 0.00 0.00 57 1009.9
20260506041508 1 311 0.0 0.0 0.00 0.00 0.00 50 1009.9
20260506040009 2 328 3.2 0.0 0.00 0.00 0.00 50 1009.7
20260506034505 1 310 1.6 0.0 0.00 0.00 0.00 53 1009.7
20260506033004 1 265 1.6 0.0 0.00 0.00 0.00 55 1009.6
20260506031504 2 265 3.2 0.0 0.00 0.00 0.00 56 1009.4
20260506030104 3 307 1.6 0.0 0.00 0.00 0.00 52 1009.3
20260506024615 3 309 1.6 0.0 0.00 0.00 0.00 48 1009.1
20260506023104 4 309 0.0 0.0 0.00 0.00 0.00 45 1009.0
20260506021600 5 309 1.6 0.0 0.00 0.00 0.00 43 1008.9
20260506020056 5 314 4.8 0.0 0.00 0.00 0.00 42 1008.7
20260506014556 5 296 6.4 0.0 0.00 0.00 0.00 41 1008.8
20260506013101 6 311 8.0 0.0 0.00 0.00 0.00 40 1008.7
20260506011621 6 330 11.3 0.0 0.00 0.00 0.00 39 1008.6
20260506010106 6 336 16.1 0.0 0.00 0.00 0.00 37 1008.6
20260506004555 7 313 16.1 0.0 0.00 0.00 0.00 37 1008.5
20260506003056 7 321 19.3 0.0 0.00 0.00 0.00 36 1008.4